TimeMST,TemperatureF,Dew PointF,Humidity,Sea Level PressureIn,VisibilityMPH,Wind Direction,Wind SpeedMPH,Gust SpeedMPH,PrecipitationIn,Events,Conditions,WindDirDegrees,DateUTC
12:53 AM,37.9,25.0,60,29.65,10.0,Calm,Calm,-,N/A,,Overcast,0,2013-01-27 07:53:00
1:53 AM,35.1,25.0,67,29.67,10.0,Calm,Calm,-,N/A,,Overcast,0,2013-01-27 08:53:00
2:53 AM,32.0,24.1,73,29.68,10.0,WNW,3.5,-,N/A,,Overcast,290,2013-01-27 09:53:00
3:53 AM,32.0,24.1,73,29.67,10.0,Calm,Calm,-,N/A,,Mostly Cloudy,0,2013-01-27 10:53:00
4:53 AM,34.0,25.0,70,29.67,10.0,Calm,Calm,-,N/A,,Overcast,0,2013-01-27 11:53:00
5:53 AM,32.0,25.0,75,29.71,10.0,NW,5.8,-,N/A,,Overcast,310,2013-01-27 12:53:00
6:53 AM,32.0,25.0,75,29.71,10.0,SE,4.6,-,N/A,,Overcast,130,2013-01-27 13:53:00
7:53 AM,33.1,25.0,72,29.71,10.0,SE,3.5,-,N/A,,Overcast,130,2013-01-27 14:53:00
8:53 AM,37.9,27.0,65,29.70,10.0,Calm,Calm,-,N/A,,Mostly Cloudy,0,2013-01-27 15:53:00
9:53 AM,46.0,28.9,51,29.68,10.0,NNW,6.9,-,N/A,,Clear,330,2013-01-27 16:53:00
10:53 AM,51.1,28.9,43,29.67,10.0,NW,20.7,28.8,N/A,,Clear,320,2013-01-27 17:53:00
11:53 AM,48.9,28.9,46,29.68,10.0,NW,18.4,-,N/A,,Clear,320,2013-01-27 18:53:00
12:53 PM,52.0,28.0,40,29.65,10.0,NW,15.0,-,N/A,,Mostly Cloudy,320,2013-01-27 19:53:00
1:53 PM,53.1,27.0,37,29.64,10.0,NNW,13.8,-,N/A,,Mostly Cloudy,330,2013-01-27 20:53:00
2:53 PM,51.1,27.0,39,29.65,10.0,NNW,3.5,-,N/A,,Overcast,340,2013-01-27 21:53:00
3:53 PM,52.0,26.1,37,29.66,10.0,West,8.1,-,N/A,,Mostly Cloudy,270,2013-01-27 22:53:00
4:53 PM,43.0,26.1,51,29.67,10.0,ENE,17.3,21.9,N/A,,Overcast,60,2013-01-27 23:53:00
5:53 PM,39.9,27.0,60,29.72,10.0,NE,11.5,-,N/A,,Overcast,40,2013-01-28 00:53:00
6:53 PM,37.9,27.0,65,29.74,10.0,ENE,10.4,-,N/A,,Overcast,60,2013-01-28 01:53:00
7:53 PM,34.0,25.0,70,29.75,10.0,Calm,Calm,-,N/A,,Clear,0,2013-01-28 02:53:00
8:53 PM,39.9,25.0,55,29.70,10.0,Calm,Calm,-,N/A,,Mostly Cloudy,0,2013-01-28 03:53:00
9:53 PM,39.0,25.0,57,29.67,10.0,ESE,5.8,-,N/A,,Overcast,120,2013-01-28 04:53:00
10:53 PM,41.0,24.1,51,29.64,10.0,West,4.6,-,N/A,,Scattered Clouds,280,2013-01-28 05:53:00
11:53 PM,37.9,23.0,55,29.64,10.0,West,9.2,-,N/A,,Clear,270,2013-01-28 06:53:00